Location: Gulgong NSW 2852, Australia
(32.2976°S, 149.5548°E)
Time: 13:20:05
(UTC+11:00)

Envisat - Pass Details

Date: 09 December 2021
Orbit: 764 x 766 km, 98.2° (Epoch: 27 January)

Event Time Altitude Azimuth Distance (km) Brightness Sun altitude
Rises 03:49:10 0° 66° (ENE) 3,229 6.5 -20.8°
Reaches altitude 10° 03:53:17 10° 99° (E) 2,314 6.2 -20.2°
Maximum altitude 03:54:45 11° 116° (ESE) 2,232 6.4 -20.0°
Drops below altitude 10° 03:56:14 10° 133° (SE) 2,322 6.7 -19.8°
Sets 04:00:22 0° 165° (SSE) 3,260 7.3 -19.2°
